Tracking 20083 objects as of 9-Dec-2019
HD Live streaming from Space Station
objects crossing your sky now

OV3-3

Track OV3-3 now!
10-day predictions
OV3-3 is classified as:


NORAD ID: 2389
Int'l Code: 1966-070A
Perigee: 347.5 km
Apogee: 2,240.5 km
Inclination: 81.4 °
Period: 111.3 minutes
Semi major axis: 7664 km
RCS: 0.7052 m2 (medium)
Launch date: August 4, 1966
Source: United States (US)
Launch site: AIR FORCE WESTERN TEST RANGE (AFWTR)
aabbcc
Your satellite tracking list
Your tracking list is empty




NASA's NSSDC Master Catalog

Two Line Element Set (TLE):
1  2389U 66070A   19342.74597511 +.00001287 +00000-0 +71897-4 0  9993
2  2389 081.3851 157.9230 1234811 270.1385 075.8622 12.93703322286630
Source of the keplerian elements: AFSPC